Time,TemperatureF,DewpointF,PressureIn,WindDirection,WindDirectionDegrees,WindSpeedMPH,WindSpeedGustMPH,Humidity,HourlyPrecipIn,Conditions,Clouds,dailyrainin,SolarRadiationWatts/m^2,SoftwareType,DateUTC
2013-11-17 00:12:00,33.0,22.0,-100.00,SE,139,0.0,4.0,63,0.00,,,0.00,0.000000,,2013-11-17 08:12:00,
2013-11-17 00:21:00,33.0,22.0,-100.00,SE,139,0.0,4.0,63,0.00,,,0.00,0.000000,,2013-11-17 08:21:00,
2013-11-17 00:32:00,33.0,22.0,-100.00,SE,139,0.0,4.0,63,0.00,,,0.00,0.000000,,2013-11-17 08:32:00,
2013-11-17 00:42:00,33.0,22.0,-100.00,SE,139,0.0,4.0,63,0.00,,,0.00,0.000000,,2013-11-17 08:42:00,
2013-11-17 01:11:00,31.0,21.0,-100.00,SSE,163,0.0,3.0,66,0.00,,,0.00,0.000000,,2013-11-17 09:11:00,
2013-11-17 01:22:00,31.0,21.0,-100.00,SSE,163,0.0,3.0,66,0.00,,,0.00,0.000000,,2013-11-17 09:22:00,
2013-11-17 01:33:00,31.0,21.0,-100.00,SSE,163,0.0,3.0,66,0.00,,,0.00,0.000000,,2013-11-17 09:33:00,
2013-11-17 01:42:00,31.0,21.0,-100.00,SSE,163,0.0,3.0,66,0.00,,,0.00,0.000000,,2013-11-17 09:42:00,
2013-11-17 02:23:00,29.0,20.0,-100.00,WNW,293,0.0,0.0,70,0.00,,,0.00,0.000000,,2013-11-17 10:23:00,
2013-11-17 02:33:00,29.0,20.0,-100.00,WNW,293,0.0,0.0,70,0.00,,,0.00,0.000000,,2013-11-17 10:33:00,
2013-11-17 02:42:00,29.0,20.0,-100.00,WNW,293,0.0,0.0,70,0.00,,,0.00,0.000000,,2013-11-17 10:42:00,
2013-11-17 03:12:00,28.0,20.0,-100.00,WSW,245,0.0,2.0,73,0.00,,,0.00,0.000000,,2013-11-17 11:12:00,
2013-11-17 03:22:00,28.0,20.0,-100.00,WSW,245,0.0,2.0,73,0.00,,,0.00,0.000000,,2013-11-17 11:22:00,
2013-11-17 03:32:00,28.0,20.0,-100.00,WSW,245,0.0,2.0,73,0.00,,,0.00,0.000000,,2013-11-17 11:32:00,
2013-11-17 03:42:00,28.0,20.0,-100.00,WSW,245,0.0,2.0,73,0.00,,,0.00,0.000000,,2013-11-17 11:42:00,
2013-11-17 04:11:00,28.0,20.0,-100.00,NNE,17,0.0,0.0,72,0.00,,,0.00,0.000000,,2013-11-17 12:11:00,
2013-11-17 04:22:00,28.0,20.0,-100.00,NNE,17,0.0,0.0,72,0.00,,,0.00,0.000000,,2013-11-17 12:22:00,
2013-11-17 04:32:00,28.0,20.0,-100.00,NNE,17,0.0,0.0,72,0.00,,,0.00,0.000000,,2013-11-17 12:32:00,
2013-11-17 04:42:00,28.0,20.0,-100.00,NNE,17,0.0,0.0,72,0.00,,,0.00,0.000000,,2013-11-17 12:42:00,
2013-11-17 05:11:00,27.0,20.0,-100.00,WSW,249,0.0,2.0,73,0.00,,,0.00,0.000000,,2013-11-17 13:11:00,
2013-11-17 05:21:00,27.0,20.0,-100.00,WSW,249,0.0,2.0,73,0.00,,,0.00,0.000000,,2013-11-17 13:21:00,
2013-11-17 05:32:00,27.0,20.0,-100.00,WSW,249,0.0,2.0,73,0.00,,,0.00,0.000000,,2013-11-17 13:32:00,
2013-11-17 05:42:00,27.0,20.0,-100.00,WSW,249,0.0,2.0,73,0.00,,,0.00,0.000000,,2013-11-17 13:42:00,
2013-11-17 06:11:00,27.0,19.0,-100.00,West,261,0.0,4.0,71,0.00,,,0.00,0.000000,,2013-11-17 14:11:00,
2013-11-17 06:21:00,27.0,19.0,-100.00,West,261,0.0,4.0,71,0.00,,,0.00,0.000000,,2013-11-17 14:21:00,
2013-11-17 06:32:00,27.0,19.0,-100.00,West,261,0.0,4.0,71,0.00,,,0.00,0.000000,,2013-11-17 14:32:00,
2013-11-17 06:42:00,27.0,19.0,-100.00,West,261,0.0,4.0,71,0.00,,,0.00,0.000000,,2013-11-17 14:42:00,
2013-11-17 07:11:00,27.0,19.0,-100.00,SE,144,0.0,3.0,71,0.00,,,0.00,0.000000,,2013-11-17 15:11:00,
2013-11-17 07:22:00,27.0,19.0,-100.00,SE,144,0.0,3.0,71,0.00,,,0.00,0.000000,,2013-11-17 15:22:00,
2013-11-17 07:34:00,27.0,19.0,-100.00,SE,144,0.0,3.0,71,0.00,,,0.00,0.000000,,2013-11-17 15:34:00,
2013-11-17 07:43:00,27.0,19.0,-100.00,SE,144,0.0,3.0,71,0.00,,,0.00,0.000000,,2013-11-17 15:43:00,
2013-11-17 08:13:00,31.0,20.0,-100.00,NNW,343,0.0,3.0,63,0.00,,,0.00,32.000000,,2013-11-17 16:13:00,
2013-11-17 08:23:00,31.0,20.0,-100.00,NNW,343,0.0,3.0,63,0.00,,,0.00,32.000000,,2013-11-17 16:23:00,
2013-11-17 08:33:00,31.0,20.0,-100.00,NNW,343,0.0,3.0,63,0.00,,,0.00,32.000000,,2013-11-17 16:33:00,
2013-11-17 08:42:00,31.0,20.0,-100.00,NNW,343,0.0,3.0,63,0.00,,,0.00,32.000000,,2013-11-17 16:42:00,
2013-11-17 09:12:00,40.0,20.0,-100.00,West,280,0.0,5.0,44,0.00,,,0.00,268.000000,,2013-11-17 17:12:00,
2013-11-17 09:22:00,40.0,20.0,-100.00,West,280,0.0,5.0,44,0.00,,,0.00,268.000000,,2013-11-17 17:22:00,
2013-11-17 09:33:00,40.0,20.0,-100.00,West,280,0.0,5.0,44,0.00,,,0.00,268.000000,,2013-11-17 17:33:00,
2013-11-17 09:43:00,40.0,20.0,-100.00,West,280,0.0,5.0,44,0.00,,,0.00,268.000000,,2013-11-17 17:43:00,
2013-11-17 10:42:00,52.0,22.0,-100.00,NE,50,0.0,5.0,31,0.00,,,0.00,471.000000,,2013-11-17 18:42:00,
2013-11-17 11:42:00,56.0,19.0,-100.00,NNW,340,1.0,5.0,23,0.00,,,0.00,548.000000,,2013-11-17 19:42:00,
2013-11-17 12:22:00,60.0,21.0,-100.00,North,11,4.0,8.0,22,0.00,,,0.00,255.000000,,2013-11-17 20:22:00,
2013-11-17 12:32:00,60.0,21.0,-100.00,North,11,4.0,8.0,22,0.00,,,0.00,255.000000,,2013-11-17 20:32:00,
2013-11-17 12:42:00,60.0,21.0,-100.00,North,11,4.0,8.0,22,0.00,,,0.00,255.000000,,2013-11-17 20:42:00,
2013-11-17 13:12:00,62.0,23.0,-100.00,North,9,3.0,8.0,22,0.00,,,0.00,663.000000,,2013-11-17 21:12:00,
2013-11-17 13:22:00,62.0,23.0,-100.00,North,9,3.0,8.0,22,0.00,,,0.00,663.000000,,2013-11-17 21:22:00,
2013-11-17 13:34:00,62.0,23.0,-100.00,North,9,3.0,8.0,22,0.00,,,0.00,663.000000,,2013-11-17 21:34:00,
2013-11-17 13:44:00,62.0,23.0,-100.00,North,9,3.0,8.0,22,0.00,,,0.00,663.000000,,2013-11-17 21:44:00,
2013-11-17 14:24:00,60.0,19.0,-100.00,NNW,341,4.0,10.0,20,0.00,,,0.00,598.000000,,2013-11-17 22:24:00,
2013-11-17 14:34:00,60.0,19.0,-100.00,NNW,341,4.0,10.0,20,0.00,,,0.00,598.000000,,2013-11-17 22:34:00,
2013-11-17 14:43:00,60.0,19.0,-100.00,NNW,341,4.0,10.0,20,0.00,,,0.00,598.000000,,2013-11-17 22:43:00,
2013-11-17 15:12:00,62.0,19.0,-100.00,NW,321,4.0,9.0,19,0.00,,,0.00,465.000000,,2013-11-17 23:12:00,
2013-11-17 15:23:00,62.0,19.0,-100.00,NW,321,4.0,9.0,19,0.00,,,0.00,465.000000,,2013-11-17 23:23:00,
2013-11-17 15:33:00,62.0,19.0,-100.00,NW,321,4.0,9.0,19,0.00,,,0.00,465.000000,,2013-11-17 23:33:00,
2013-11-17 15:42:00,62.0,19.0,-100.00,NW,321,4.0,9.0,19,0.00,,,0.00,465.000000,,2013-11-17 23:42:00,
2013-11-17 17:22:00,50.0,16.0,-100.00,WSW,237,0.0,4.0,26,0.00,,,0.00,39.000000,,2013-11-18 01:22:00,
2013-11-17 17:32:00,50.0,16.0,-100.00,WSW,237,0.0,4.0,26,0.00,,,0.00,39.000000,,2013-11-18 01:32:00,
2013-11-17 17:42:00,50.0,16.0,-100.00,WSW,237,0.0,4.0,26,0.00,,,0.00,39.000000,,2013-11-18 01:42:00,
2013-11-17 18:11:00,45.0,16.0,-100.00,South,176,0.0,5.0,31,0.00,,,0.00,0.000000,,2013-11-18 02:11:00,
2013-11-17 18:21:00,45.0,16.0,-100.00,South,176,0.0,5.0,31,0.00,,,0.00,0.000000,,2013-11-18 02:21:00,
2013-11-17 18:32:00,45.0,16.0,-100.00,South,176,0.0,5.0,31,0.00,,,0.00,0.000000,,2013-11-18 02:32:00,
2013-11-17 18:42:00,45.0,16.0,-100.00,South,176,0.0,5.0,31,0.00,,,0.00,0.000000,,2013-11-18 02:42:00,
2013-11-17 19:11:00,40.0,16.0,-100.00,SSE,163,0.0,0.0,38,0.00,,,0.00,0.000000,,2013-11-18 03:11:00,
2013-11-17 19:22:00,40.0,16.0,-100.00,SSE,163,0.0,0.0,38,0.00,,,0.00,0.000000,,2013-11-18 03:22:00,
2013-11-17 19:33:00,40.0,16.0,-100.00,SSE,163,0.0,0.0,38,0.00,,,0.00,0.000000,,2013-11-18 03:33:00,
2013-11-17 19:44:00,40.0,16.0,-100.00,SSE,163,0.0,0.0,38,0.00,,,0.00,0.000000,,2013-11-18 03:44:00,
2013-11-17 20:12:00,38.0,18.0,-100.00,West,264,0.0,3.0,43,0.00,,,0.00,0.000000,,2013-11-18 04:12:00,
2013-11-17 20:23:00,38.0,18.0,-100.00,West,264,0.0,3.0,43,0.00,,,0.00,0.000000,,2013-11-18 04:23:00,
2013-11-17 20:33:00,38.0,18.0,-100.00,West,264,0.0,3.0,43,0.00,,,0.00,0.000000,,2013-11-18 04:33:00,
2013-11-17 20:42:00,38.0,18.0,-100.00,West,264,0.0,3.0,43,0.00,,,0.00,0.000000,,2013-11-18 04:42:00,
2013-11-17 21:22:00,34.0,16.0,-100.00,ESE,120,0.0,0.0,48,0.00,,,0.00,0.000000,,2013-11-18 05:22:00,
2013-11-17 21:33:00,34.0,16.0,-100.00,ESE,120,0.0,0.0,48,0.00,,,0.00,0.000000,,2013-11-18 05:33:00,
2013-11-17 21:42:00,34.0,16.0,-100.00,ESE,120,0.0,0.0,48,0.00,,,0.00,0.000000,,2013-11-18 05:42:00,
2013-11-17 22:12:00,32.0,17.0,-100.00,West,261,0.0,2.0,53,0.00,,,-99.99,0.000000,,2013-11-18 06:12:00,
2013-11-17 22:22:00,32.0,17.0,-100.00,West,261,0.0,2.0,53,0.00,,,-99.99,0.000000,,2013-11-18 06:22:00,
2013-11-17 22:32:00,32.0,17.0,-100.00,West,261,0.0,2.0,53,0.00,,,-99.99,0.000000,,2013-11-18 06:32:00,
2013-11-17 22:42:00,32.0,17.0,-100.00,West,261,0.0,2.0,53,0.00,,,-99.99,0.000000,,2013-11-18 06:42:00,
2013-11-17 23:21:00,33.0,19.0,-100.00,WSW,250,0.0,0.0,57,0.00,,,0.00,0.000000,,2013-11-18 07:21:00,
2013-11-17 23:32:00,33.0,19.0,-100.00,WSW,250,0.0,0.0,57,0.00,,,0.00,0.000000,,2013-11-18 07:32:00,
2013-11-17 23:42:00,33.0,19.0,-100.00,WSW,250,0.0,0.0,57,0.00,,,0.00,0.000000,,2013-11-18 07:42:00,